Flag for USA

Past Weather in King, North Carolina, USA — Yesterday and Last 2 Weeks

Currently: 66 °F. Fog. (Weather station: Smith Reynolds Airport, USA). See more current weather

Past Weather in King — Graph

°F

King Temperature Yesterday

Maximum temperature yesterday: 67 °F (at 1:54 pm)
Minimum temperature yesterday: 57 °F (at 12:54 am)
Average temperature yesterday: 63 °F

High & Low Weather Summary for the Past Weeks

 TemperatureHumidityPressure
High80 °F (Oct 21, 3:54 pm)100% (Oct 15, 6:54 am)30.42 "Hg (Oct 15, 6:54 am)
Low38 °F (Oct 18, 6:54 am)25% (Oct 14, 12:54 pm)29.91 "Hg (Oct 24, 5:54 pm)
Average61 °F85%30.15 "Hg
* Reported Oct 14 12:54 am — Oct 29 12:36 am, King. Weather by CustomWeather, © 2020

Note: Actual official high and low records may vary slightly from our data, if they occured in-between our weather recording intervals... More about our weather records

King Weather History for the Previous 24 Hours

Scroll right to see more
 ConditionsComfort  
Time TempWeatherWind HumidityBarometerVisibility
12:36 am
Thu, Oct 29
65 °FFog.3 mph100%29.96 "Hg3 mi
11:54 pm
Wed, Oct 28
65 °FLight rain. Fog.5 mph100%29.96 "Hg5 mi
11:07 pm65 °FFog.3 mph100%30.00 "Hg3 mi
10:42 pm66 °FLight rain. Fog.3 mph100%30.01 "Hg3 mi
10:17 pm66 °FLight rain. Fog.3 mph100%30.02 "Hg2 mi
9:54 pm66 °FLight rain. Overcast.No wind100%30.00 "Hg8 mi
9:30 pm66 °FOvercast.3 mph100%30.03 "Hg9 mi
8:54 pm66 °FLow clouds.3 mph100%30.02 "Hg10 mi
7:54 pm66 °FLight rain. Fog.8 mph100%30.04 "Hg4 mi
7:25 pm66 °FMostly cloudy.5 mph100%30.06 "Hg8 mi
6:54 pm66 °FLight rain. Fog.5 mph100%30.04 "Hg2 mi
6:41 pm66 °FLight rain. Fog.3 mph100%30.06 "Hg2 mi
6:30 pm66 °FLight rain. Fog.5 mph100%30.06 "Hg2 mi
6:14 pm67 °FLight rain. Fog.3 mph100%30.06 "Hg2 mi
5:54 pm67 °FLight rain. Fog.5 mph100%30.05 "Hg2 mi
4:54 pm67 °FLight rain. Fog.3 mph100%30.05 "Hg5 mi
3:54 pm67 °FLow clouds.6 mph100%30.06 "Hg10 mi
2:54 pm67 °FMostly cloudy.8 mph97%30.06 "Hg10 mi
1:54 pm67 °FMostly cloudy.8 mph97%30.07 "Hg10 mi
12:54 pm66 °FMostly cloudy.6 mph100%30.10 "Hg9 mi
11:54 am65 °FFog.7 mph97%30.13 "Hg5 mi
10:54 am65 °FFog.5 mph97%30.13 "Hg4 mi
10:30 am65 °FFog.6 mph97%30.15 "Hg4 mi
7:54 am60 °FFog.5 mph100%30.11 "Hg2 mi
6:54 am59 °FFog.3 mph100%30.12 "Hg0 mi
5:54 am58 °FFog.3 mph100%30.11 "Hg0 mi
4:54 am60 °FFog.No wind100%30.12 "Hg0 mi
3:54 am59 °FFog.5 mph100%30.14 "Hg0 mi
3:23 am59 °FFog.No wind100%30.16 "Hg3 mi
3:03 am57 °FFog.No wind100%30.16 "Hg1 mi
2:59 am57 °FFog.No wind100%30.16 "Hg2 mi
2:38 am57 °FFog.No wind100%30.15 "Hg2 mi
2:07 am57 °FFog.No wind100%30.16 "Hg1 mi
2:01 am57 °FFog.No wind100%30.16 "Hg1 mi
1:28 am57 °FFog.No wind100%30.16 "Hg2 mi
Weather by CustomWeather, © 2020

See weather overview